Volver al catálogo

IRIDIUM 44

ActivoComunicacionesPO
NORAD 25078·PAYLOAD·🇺🇸 United States

Lanzado Dec 8, 1997 desde Taiyuan Satellite Launch Center

Loading…

Próximos Pases (próximas 24 horas)

TLE

ActualizadoSource: Space-Track

Época: Sep 14, 2026, 08:56 UTC

1 25078U 97077B   26257.37237266  .00000252  00000-0  72742-4 0  9995
2 25078  86.3974  29.4799 0002132  39.9572 320.1784 14.40613050509085

Sigue IRIDIUM 44 en tiempo real con AllMySat

Download on the App Store